Volver al catálogo

STARLINK-11168

ActivoComunicacionesVLEO
NORAD 60183·PAYLOAD·🇺🇸 United States

Lanzado Jul 3, 2024 desde Cape Canaveral Space Force Station

Loading…

Próximos Pases (próximas 24 horas)

TLE

ActualizadoSource: CelesTrak SupGP

Época: Sep 14, 2026, 21:18 UTC

1 60183C 24124A   26257.88798611 -.00055984  00000+0 -46112-3 0  2577
2 60183  53.1562 308.4953 0001056  82.2313 181.1973 15.69739781    12

Sigue STARLINK-11168 en tiempo real con AllMySat

Download on the App Store